Simultaneous Nadir Overpasses (SNOs) Predictions

Prediction of SNOs between NPP and TERRA Satellite Orbit:

Table of predicted SNOs for the next 14.0 days since TLE Epoch: 11/21/2020
Index Date (NPP) Time (NPP) Lat,Lon (NPP) SZA (NPP ) Date (TERRA) Time (TERRA) Lat,Lon (TERRA) SZA (TERRA ) Distance(km) Time Diff (sec)
1 11/21/2020 10:39:01 68.41, 18.81 88.37 11/21/2020 10:40:07 68.41, 18.74 88.37 2.61 66
2 11/21/2020 11:29:42 -68.28,-173.72 91.75 11/21/2020 11:29:37 -68.30,-173.76 91.74 2.45 5
3 11/21/2020 12:20:21 67.88, -5.90 87.86 11/21/2020 12:19:09 67.91, -6.57 87.88 28.50 72
4 11/24/2020 02:55:53 68.39, 134.60 88.91 11/24/2020 02:56:35 68.37, 134.57 88.88 2.89 42
5 11/24/2020 03:46:34 -68.26, -57.92 91.22 11/24/2020 03:46:05 -68.26, -57.92 91.22 0.41 29
6 11/26/2020 18:22:16 -69.25, 81.90 89.74 11/26/2020 18:23:24 -69.16, 83.79 89.82 75.38 68
7 11/26/2020 19:12:46 68.38,-109.61 89.40 11/26/2020 19:13:03 68.37,-109.54 89.40 2.71 17
8 11/26/2020 20:03:26 -68.19, 57.95 90.78 11/26/2020 20:02:34 -68.22, 57.90 90.76 3.00 52
9 11/29/2020 10:38:54 -68.44,-161.22 90.08 11/29/2020 10:40:05 -68.44,-161.23 90.08 0.26 71
10 11/29/2020 11:29:38 68.31, 6.25 89.80 11/29/2020 11:29:32 68.32, 6.27 89.81 1.21 6
11 11/29/2020 12:20:17 -68.07, 173.88 90.44 11/29/2020 12:19:04 -68.11, 173.66 90.41 9.87 73
12 12/02/2020 02:55:46 -68.38, -45.36 89.73 12/02/2020 02:56:34 -68.38, -45.42 89.73 2.24 48
13 12/02/2020 03:46:30 68.25, 122.11 90.15 12/02/2020 03:46:01 68.26, 122.08 90.16 1.22 29
14 12/02/2020 04:36:54 -67.20, -69.29 90.89 12/02/2020 04:35:47 -67.27, -71.42 90.84 91.82 67
15 12/04/2020 18:22:11 69.26, -98.09 91.51 12/04/2020 18:23:19 69.14, -96.22 91.40 75.17 68
16 12/04/2020 19:12:38 -68.37, 70.42 89.38 12/04/2020 19:13:01 -68.37, 70.46 89.37 1.45 23
17 12/04/2020 20:03:22 68.25,-122.11 90.51 12/04/2020 20:02:28 68.25,-122.05 90.51 2.74 54
